| time (UTC) | temp F | wind direction | speed knots | gust knots | rain 1hr in | rain 24hr in | rain mn in | humidity % | barometer mb |
| 20260509154552 | 63 | 348 | 0.0 | 2.6 | 0.00 | 0.00 | 0.00 | 84 | 1012.4 |
| 20260509154053 | 62 | 332 | 1.7 | 2.6 | 0.00 | 0.00 | 0.00 | 84 | 1012.4 |
| 20260509153553 | 62 | 0 | 0.9 | 1.7 | 0.00 | 0.00 | 0.00 | 86 | 1012.4 |
| 20260509153104 | 62 | 336 | 0.0 | 1.7 | 0.00 | 0.00 | 0.00 | 87 | 1012.5 |
| 20260509152553 | 62 | 318 | 0.0 | 3.5 | 0.00 | 0.00 | 0.00 | 88 | 1012.5 |
| 20260509152054 | 62 | 0 | 0.0 | 3.5 | 0.00 | 0.00 | 0.00 | 88 | 1012.3 |
| 20260509151556 | 61 | 0 | 0.9 | 3.5 | 0.00 | 0.00 | 0.00 | 88 | 1012.4 |
| 20260509151056 | 61 | 22 | 0.0 | 3.5 | 0.00 | 0.00 | 0.00 | 88 | 1012.4 |
| 20260509150553 | 61 | 338 | 0.0 | 3.5 | 0.00 | 0.00 | 0.00 | 89 | 1012.5 |
| 20260509150054 | 61 | 107 | 0.9 | 3.5 | 0.00 | 0.00 | 0.00 | 90 | 1012.4 |
| 20260509145550 | 61 | 20 | 0.9 | 3.5 | 0.00 | 0.00 | 0.00 | 90 | 1012.6 |
| 20260509145053 | 60 | 0 | 0.0 | 2.6 | 0.00 | 0.00 | 0.00 | 91 | 1012.4 |
| 20260509144554 | 60 | 355 | 0.0 | 3.5 | 0.00 | 0.00 | 0.00 | 91 | 1012.3 |
| 20260509144053 | 60 | 0 | 0.9 | 3.5 | 0.00 | 0.00 | 0.00 | 92 | 1012.2 |
| 20260509143553 | 60 | 0 | 0.0 | 4.3 | 0.00 | 0.00 | 0.00 | 93 | 1012.0 |
| 20260509143055 | 60 | 0 | 0.0 | 4.3 | 0.00 | 0.00 | 0.00 | 94 | 1011.9 |
| 20260509142553 | 59 | 329 | 0.9 | 4.3 | 0.00 | 0.00 | 0.00 | 95 | 1011.7 |
| 20260509142053 | 59 | 0 | 0.0 | 3.5 | 0.00 | 0.00 | 0.00 | 96 | 1011.7 |
| 20260509141556 | 58 | 27 | 0.0 | 2.6 | 0.00 | 0.00 | 0.00 | 96 | 1011.6 |
| 20260509141053 | 58 | 360 | 0.0 | 2.6 | 0.00 | 0.00 | 0.00 | 96 | 1011.6 |
| 20260509140553 | 57 | 113 | 0.0 | 1.7 | 0.00 | 0.00 | 0.00 | 96 | 1011.6 |
| 20260509140053 | 57 | 89 | 0.0 | 1.7 | 0.00 | 0.00 | 0.00 | 97 | 1011.6 |
| 20260509135553 | 56 | 0 | 0.0 | 1.7 | 0.00 | 0.00 | 0.00 | 96 | 1011.5 |
| 20260509135053 | 56 | 0 | 0.0 | 0.0 | 0.00 | 0.00 | 0.00 | 96 | 1011.6 |
| 20260509134552 | 55 | 0 | 0.0 | 0.0 | 0.00 | 0.00 | 0.00 | 96 | 1011.7 |
| 20260509134052 | 55 | 0 | 0.0 | 0.0 | 0.00 | 0.00 | 0.00 | 96 | 1011.8 |
| 20260509133556 | 55 | 0 | 0.0 | 0.0 | 0.00 | 0.00 | 0.00 | 96 | 1011.7 |
| 20260509133054 | 54 | 0 | 0.0 | 0.0 | 0.00 | 0.00 | 0.00 | 96 | 1011.9 |
| 20260509132552 | 54 | 0 | 0.0 | 0.0 | 0.00 | 0.00 | 0.00 | 96 | 1011.7 |
| 20260509132054 | 54 | 0 | 0.0 | 0.0 | 0.00 | 0.00 | 0.00 | 96 | 1011.8 |
| 20260509131559 | 54 | 0 | 0.0 | 0.0 | 0.00 | 0.00 | 0.00 | 96 | 1011.9 |
| 20260509131052 | 54 | 0 | 0.0 | 0.0 | 0.00 | 0.00 | 0.00 | 96 | 1011.8 |
| 20260509130552 | 54 | 0 | 0.0 | 0.0 | 0.00 | 0.00 | 0.00 | 96 | 1011.7 |
| 20260509130107 | 54 | 0 | 0.0 | 0.0 | 0.00 | 0.00 | 0.00 | 96 | 1011.6 |
| 20260509125553 | 53 | 0 | 0.0 | 0.0 | 0.00 | 0.00 | 0.00 | 96 | 1011.6 |
| 20260509125053 | 53 | 0 | 0.0 | 0.0 | 0.00 | 0.00 | 0.00 | 96 | 1011.5 |
| 20260509124559 | 53 | 0 | 0.0 | 0.0 | 0.00 | 0.00 | 0.00 | 96 | 1011.7 |
| 20260509124055 | 53 | 0 | 0.0 | 0.0 | 0.00 | 0.00 | 0.00 | 96 | 1011.7 |
| 20260509123554 | 52 | 0 | 0.0 | 0.0 | 0.00 | 0.00 | 0.00 | 96 | 1011.7 |
| 20260509123057 | 52 | 0 | 0.0 | 0.0 | 0.00 | 0.00 | 0.00 | 96 | 1011.7 |
| 20260509122553 | 52 | 0 | 0.0 | 0.0 | 0.00 | 0.00 | 0.00 | 96 | 1011.7 |
| 20260509122053 | 52 | 0 | 0.0 | 0.0 | 0.00 | 0.00 | 0.00 | 95 | 1011.6 |
| 20260509121633 | 52 | 0 | 0.0 | 0.0 | 0.00 | 0.00 | 0.00 | 95 | 1011.7 |
| 20260509121053 | 52 | 0 | 0.0 | 0.0 | 0.00 | 0.00 | 0.00 | 95 | 1011.5 |
| 20260509120554 | 52 | 0 | 0.0 | 0.0 | 0.00 | 0.00 | 0.00 | 96 | 1011.5 |
| 20260509115553 | 52 | 0 | 0.0 | 0.0 | 0.00 | 0.00 | 0.00 | 96 | 1011.6 |
| 20260509115053 | 52 | 0 | 0.0 | 0.0 | 0.00 | 0.00 | 0.00 | 96 | 1011.5 |
| 20260509114600 | 51 | 0 | 0.0 | 0.0 | 0.00 | 0.00 | 0.00 | 96 | 1011.6 |
| 20260509114053 | 51 | 0 | 0.0 | 0.0 | 0.00 | 0.00 | 0.00 | 96 | 1011.6 |
| 20260509113553 | 51 | 0 | 0.0 | 0.0 | 0.00 | 0.00 | 0.00 | 96 | 1011.8 |
| 20260509113059 | 51 | 0 | 0.0 | 0.0 | 0.00 | 0.00 | 0.00 | 95 | 1011.8 |
| 20260509112553 | 51 | 0 | 0.0 | 0.0 | 0.00 | 0.00 | 0.00 | 95 | 1011.9 |
| 20260509112053 | 51 | 0 | 0.0 | 0.0 | 0.00 | 0.00 | 0.00 | 95 | 1011.9 |
| 20260509111553 | 50 | 0 | 0.0 | 0.0 | 0.00 | 0.00 | 0.00 | 95 | 1011.8 |
| 20260509111053 | 50 | 0 | 0.0 | 0.0 | 0.00 | 0.00 | 0.00 | 95 | 1011.8 |
| 20260509110553 | 50 | 0 | 0.0 | 0.0 | 0.00 | 0.00 | 0.00 | 95 | 1011.8 |
| 20260509110056 | 50 | 0 | 0.0 | 0.0 | 0.00 | 0.00 | 0.00 | 95 | 1011.7 |
| 20260509105552 | 50 | 0 | 0.0 | 0.0 | 0.00 | 0.00 | 0.00 | 95 | 1011.7 |
| 20260509105053 | 50 | 0 | 0.0 | 0.0 | 0.00 | 0.00 | 0.00 | 95 | 1011.5 |
| 20260509104553 | 50 | 0 | 0.0 | 0.0 | 0.00 | 0.00 | 0.00 | 95 | 1011.4 |
| 20260509104052 | 50 | 0 | 0.0 | 0.0 | 0.00 | 0.00 | 0.00 | 95 | 1011.6 |
| 20260509103552 | 50 | 0 | 0.0 | 0.0 | 0.00 | 0.00 | 0.00 | 95 | 1011.6 |
| 20260509103102 | 50 | 0 | 0.0 | 0.0 | 0.00 | 0.00 | 0.00 | 95 | 1011.5 |
| 20260509102550 | 50 | 0 | 0.0 | 0.0 | 0.00 | 0.00 | 0.00 | 94 | 1011.5 |
| 20260509102050 | 50 | 0 | 0.0 | 0.0 | 0.00 | 0.00 | 0.00 | 94 | 1011.7 |
| 20260509101605 | 50 | 0 | 0.0 | 0.0 | 0.00 | 0.00 | 0.00 | 94 | 1011.6 |
| 20260509101052 | 50 | 0 | 0.0 | 0.0 | 0.00 | 0.00 | 0.00 | 95 | 1011.6 |
| 20260509100553 | 50 | 0 | 0.0 | 0.0 | 0.00 | 0.00 | 0.00 | 95 | 1011.4 |
| 20260509100054 | 50 | 0 | 0.0 | 0.0 | 0.00 | 0.00 | 0.00 | 95 | 1011.5 |
| 20260509095552 | 50 | 0 | 0.0 | 0.0 | 0.00 | 0.00 | 0.00 | 94 | 1011.5 |
| 20260509095052 | 50 | 0 | 0.0 | 0.0 | 0.00 | 0.00 | 0.00 | 94 | 1011.5 |
| 20260509094604 | 50 | 0 | 0.0 | 0.0 | 0.00 | 0.00 | 0.00 | 94 | 1011.4 |
| 20260509094052 | 50 | 0 | 0.0 | 0.0 | 0.00 | 0.00 | 0.00 | 94 | 1011.7 |
| 20260509093553 | 50 | 0 | 0.0 | 0.0 | 0.00 | 0.00 | 0.00 | 94 | 1011.9 |
| 20260509093052 | 50 | 0 | 0.0 | 0.0 | 0.00 | 0.00 | 0.00 | 94 | 1011.5 |
| 20260509092554 | 50 | 0 | 0.0 | 0.0 | 0.00 | 0.00 | 0.00 | 94 | 1011.8 |
| 20260509092056 | 50 | 0 | 0.0 | 0.0 | 0.00 | 0.00 | 0.00 | 94 | 1012.0 |
| 20260509091605 | 50 | 0 | 0.0 | 0.0 | 0.00 | 0.00 | 0.00 | 94 | 1011.8 |
| 20260509091052 | 50 | 0 | 0.0 | 0.0 | 0.00 | 0.00 | 0.00 | 94 | 1011.7 |
| 20260509090553 | 50 | 0 | 0.0 | 0.0 | 0.00 | 0.00 | 0.00 | 94 | 1011.6 |
| 20260509085555 | 49 | 0 | 0.0 | 0.0 | 0.00 | 0.00 | 0.00 | 94 | 1011.6 |
| 20260509085053 | 49 | 0 | 0.0 | 0.0 | 0.00 | 0.00 | 0.00 | 93 | 1011.4 |
| 20260509084600 | 50 | 0 | 0.0 | 0.0 | 0.00 | 0.00 | 0.00 | 93 | 1011.4 |
| 20260509084053 | 50 | 0 | 0.0 | 0.0 | 0.00 | 0.00 | 0.00 | 93 | 1011.5 |
| 20260509083554 | 50 | 0 | 0.0 | 0.0 | 0.00 | 0.00 | 0.00 | 94 | 1011.6 |
| 20260509083100 | 50 | 0 | 0.0 | 0.0 | 0.00 | 0.00 | 0.00 | 94 | 1011.5 |
| 20260509082553 | 50 | 0 | 0.0 | 0.0 | 0.00 | 0.00 | 0.00 | 93 | 1011.6 |
| 20260509082055 | 50 | 0 | 0.0 | 0.0 | 0.00 | 0.00 | 0.00 | 93 | 1011.6 |
| 20260509081552 | 50 | 0 | 0.0 | 0.0 | 0.00 | 0.00 | 0.00 | 93 | 1011.5 |
| 20260509081055 | 50 | 0 | 0.0 | 0.0 | 0.00 | 0.00 | 0.00 | 93 | 1011.6 |
| 20260509080558 | 50 | 0 | 0.0 | 0.0 | 0.00 | 0.00 | 0.00 | 93 | 1011.4 |
| 20260509080057 | 50 | 0 | 0.0 | 0.0 | 0.00 | 0.00 | 0.00 | 94 | 1011.4 |
| 20260509075554 | 50 | 0 | 0.0 | 0.0 | 0.00 | 0.00 | 0.00 | 93 | 1011.3 |
| 20260509075054 | 50 | 0 | 0.0 | 0.0 | 0.00 | 0.00 | 0.00 | 93 | 1011.4 |
| 20260509074556 | 50 | 0 | 0.0 | 0.0 | 0.00 | 0.00 | 0.00 | 93 | 1011.6 |
| 20260509074056 | 50 | 0 | 0.0 | 0.0 | 0.00 | 0.00 | 0.00 | 93 | 1011.4 |
| 20260509073554 | 50 | 0 | 0.0 | 0.0 | 0.00 | 0.00 | 0.00 | 93 | 1011.6 |
| 20260509073054 | 50 | 0 | 0.0 | 0.0 | 0.00 | 0.00 | 0.00 | 92 | 1011.5 |
| 20260509072554 | 50 | 0 | 0.0 | 0.0 | 0.00 | 0.00 | 0.00 | 92 | 1011.5 |
| 20260509072055 | 50 | 0 | 0.0 | 0.0 | 0.00 | 0.00 | 0.00 | 92 | 1011.5 |
| 20260509071559 | 50 | 0 | 0.0 | 0.0 | 0.00 | 0.00 | 0.00 | 91 | 1011.6 |
| 20260509071055 | 50 | 0 | 0.0 | 0.0 | 0.00 | 0.00 | 0.00 | 91 | 1011.5 |
| 20260509070555 | 51 | 0 | 0.0 | 0.0 | 0.00 | 0.00 | 0.00 | 92 | 1011.7 |
| 20260509070056 | 51 | 0 | 0.0 | 0.0 | 0.00 | 0.00 | 0.00 | 93 | 1011.8 |
| 20260509065559 | 51 | 0 | 0.0 | 0.0 | 0.00 | 0.00 | 0.00 | 92 | 1011.9 |
| 20260509065054 | 51 | 0 | 0.0 | 0.0 | 0.00 | 0.00 | 0.00 | 92 | 1011.9 |
| 20260509064556 | 51 | 0 | 0.0 | 0.0 | 0.00 | 0.00 | 0.00 | 91 | 1012.2 |
| 20260509064054 | 51 | 0 | 0.0 | 0.0 | 0.00 | 0.00 | 0.00 | 91 | 1012.2 |
| 20260509063554 | 51 | 0 | 0.0 | 0.0 | 0.00 | 0.00 | 0.00 | 91 | 1012.3 |
| 20260509063055 | 51 | 0 | 0.0 | 0.9 | 0.00 | 0.00 | 0.00 | 91 | 1012.3 |
| 20260509062554 | 52 | 0 | 0.0 | 0.9 | 0.00 | 0.00 | 0.00 | 91 | 1012.3 |
| 20260509062054 | 52 | 0 | 0.0 | 0.0 | 0.00 | 0.00 | 0.00 | 91 | 1012.4 |
| 20260509061555 | 52 | 0 | 0.0 | 0.9 | 0.00 | 0.00 | 0.00 | 91 | 1012.5 |
| 20260509061054 | 52 | 0 | 0.0 | 0.9 | 0.00 | 0.00 | 0.00 | 91 | 1012.5 |
| 20260509060556 | 52 | 0 | 0.0 | 0.9 | 0.00 | 0.00 | 0.00 | 90 | 1012.7 |
| 20260509060107 | 52 | 0 | 0.0 | 0.0 | 0.00 | 0.00 | 0.00 | 89 | 1012.6 |
| 20260509055555 | 52 | 0 | 0.0 | 0.0 | 0.00 | 0.00 | 0.00 | 89 | 1012.6 |
| 20260509055056 | 53 | 0 | 0.0 | 0.9 | 0.00 | 0.00 | 0.00 | 90 | 1012.8 |
| 20260509054559 | 53 | 0 | 0.0 | 0.9 | 0.00 | 0.00 | 0.00 | 91 | 1012.9 |
| 20260509054054 | 53 | 0 | 0.0 | 1.7 | 0.00 | 0.00 | 0.00 | 91 | 1012.9 |
| 20260509053554 | 53 | 0 | 0.0 | 1.7 | 0.00 | 0.00 | 0.00 | 91 | 1012.7 |
| 20260509053115 | 53 | 351 | 0.0 | 0.9 | 0.00 | 0.00 | 0.00 | 91 | 1012.8 |
| 20260509052556 | 53 | 0 | 0.0 | 0.9 | 0.00 | 0.00 | 0.00 | 91 | 1012.8 |
| 20260509052052 | 52 | 0 | 0.0 | 0.9 | 0.00 | 0.00 | 0.00 | 91 | 1013.0 |
| 20260509051555 | 52 | 0 | 0.0 | 0.0 | 0.00 | 0.00 | 0.00 | 90 | 1013.0 |
| 20260509051053 | 52 | 0 | 0.0 | 0.0 | 0.00 | 0.00 | 0.00 | 89 | 1013.0 |
| 20260509050553 | 52 | 0 | 0.0 | 0.0 | 0.00 | 0.00 | 0.00 | 89 | 1013.0 |
| 20260509050109 | 53 | 0 | 0.0 | 0.0 | 0.00 | 0.00 | 0.00 | 89 | 1013.1 |
| 20260509045552 | 53 | 0 | 0.0 | 0.0 | 0.00 | 0.00 | 0.00 | 88 | 1013.3 |
| 20260509045053 | 53 | 0 | 0.0 | 0.0 | 0.00 | 0.00 | 0.00 | 88 | 1013.2 |
| 20260509044656 | 53 | 0 | 0.0 | 0.9 | 0.00 | 0.00 | 0.00 | 87 | 1013.5 |
| 20260509044053 | 53 | 0 | 0.0 | 0.9 | 0.00 | 0.00 | 0.00 | 87 | 1013.5 |
| 20260509043552 | 54 | 0 | 0.0 | 0.9 | 0.00 | 0.00 | 0.00 | 87 | 1013.4 |
| 20260509043140 | 54 | 0 | 0.0 | 0.9 | 0.00 | 0.00 | 0.00 | 87 | 1013.4 |
| 20260509042552 | 54 | 0 | 0.0 | 0.9 | 0.00 | 0.00 | 0.00 | 87 | 1013.3 |
| 20260509042052 | 54 | 0 | 0.0 | 1.7 | 0.00 | 0.00 | 0.00 | 87 | 1013.2 |
| 20260509041559 | 54 | 0 | 0.0 | 2.6 | 0.00 | 0.00 | 0.00 | 87 | 1013.2 |
| 20260509041053 | 54 | 0 | 0.0 | 2.6 | 0.00 | 0.00 | 0.00 | 87 | 1013.4 |
| 20260509040549 | 54 | 76 | 0.9 | 2.6 | 0.00 | 0.00 | 0.00 | 86 | 1013.2 |
| 20260509040059 | 54 | 0 | 0.0 | 1.7 | 0.00 | 0.00 | 0.00 | 86 | 1013.3 |
| 20260509035555 | 54 | 121 | 0.0 | 1.7 | 0.00 | 0.00 | 0.00 | 86 | 1013.4 |
| 20260509035052 | 54 | 0 | 0.9 | 1.7 | 0.00 | 0.00 | 0.00 | 86 | 1013.5 |
| 20260509034557 | 54 | 0 | 0.0 | 1.7 | 0.00 | 0.00 | 0.00 | 85 | 1013.7 |
| 20260509034052 | 54 | 0 | 0.0 | 0.0 | 0.00 | 0.00 | 0.00 | 85 | 1013.8 |
| 20260509033556 | 54 | 0 | 0.0 | 0.0 | 0.00 | 0.00 | 0.00 | 85 | 1013.8 |
| 20260509033056 | 54 | 0 | 0.0 | 0.9 | 0.00 | 0.00 | 0.00 | 85 | 1013.6 |
| 20260509032553 | 54 | 0 | 0.0 | 0.9 | 0.00 | 0.00 | 0.00 | 85 | 1013.8 |
| 20260509032052 | 54 | 0 | 0.0 | 1.7 | 0.00 | 0.00 | 0.00 | 85 | 1013.9 |
| 20260509031559 | 55 | 123 | 0.0 | 1.7 | 0.00 | 0.00 | 0.00 | 85 | 1014.0 |
| 20260509031049 | 54 | 123 | 0.0 | 1.7 | 0.00 | 0.00 | 0.00 | 85 | 1014.2 |
| 20260509030552 | 54 | 0 | 0.0 | 1.7 | 0.00 | 0.00 | 0.00 | 84 | 1014.1 |
| 20260509030112 | 55 | 242 | 0.0 | 1.7 | 0.00 | 0.00 | 0.00 | 84 | 1014.0 |
| 20260509025549 | 55 | 0 | 0.0 | 0.9 | 0.00 | 0.00 | 0.00 | 84 | 1013.9 |
| 20260509025053 | 55 | 0 | 0.0 | 0.9 | 0.00 | 0.00 | 0.00 | 84 | 1014.0 |
| 20260509024552 | 55 | 0 | 0.0 | 0.9 | 0.00 | 0.00 | 0.00 | 84 | 1014.0 |
| 20260509024052 | 55 | 0 | 0.0 | 0.9 | 0.00 | 0.00 | 0.00 | 84 | 1014.0 |
| 20260509023552 | 55 | 242 | 0.0 | 1.7 | 0.00 | 0.00 | 0.00 | 84 | 1013.9 |
| 20260509023055 | 55 | 242 | 0.0 | 1.7 | 0.00 | 0.00 | 0.00 | 84 | 1013.9 |
| 20260509022553 | 55 | 0 | 0.0 | 1.7 | 0.00 | 0.00 | 0.00 | 84 | 1013.9 |
| 20260509022056 | 55 | 286 | 0.0 | 1.7 | 0.00 | 0.00 | 0.00 | 84 | 1013.8 |
| 20260509021554 | 55 | 0 | 0.0 | 1.7 | 0.00 | 0.00 | 0.00 | 84 | 1013.7 |
| 20260509021058 | 55 | 0 | 0.0 | 0.0 | 0.00 | 0.00 | 0.00 | 84 | 1013.7 |
| 20260509020554 | 55 | 0 | 0.0 | 0.0 | 0.00 | 0.00 | 0.00 | 84 | 1013.6 |
| 20260509020107 | 55 | 0 | 0.0 | 0.0 | 0.00 | 0.00 | 0.00 | 84 | 1013.8 |
| 20260509015555 | 55 | 0 | 0.0 | 0.0 | 0.00 | 0.00 | 0.00 | 84 | 1013.7 |
| 20260509015054 | 56 | 0 | 0.0 | 0.0 | 0.00 | 0.00 | 0.00 | 83 | 1013.6 |
| 20260509014557 | 56 | 0 | 0.0 | 0.0 | 0.00 | 0.00 | 0.00 | 83 | 1013.6 |
| 20260509014054 | 56 | 0 | 0.0 | 0.0 | 0.00 | 0.00 | 0.00 | 82 | 1013.6 |
| 20260509013554 | 56 | 0 | 0.0 | 0.0 | 0.00 | 0.00 | 0.00 | 82 | 1013.4 |
| 20260509013102 | 56 | 0 | 0.0 | 0.0 | 0.00 | 0.00 | 0.00 | 82 | 1013.2 |
| 20260509012554 | 56 | 0 | 0.0 | 0.0 | 0.00 | 0.00 | 0.00 | 82 | 1013.5 |
| 20260509012054 | 57 | 0 | 0.0 | 0.0 | 0.00 | 0.00 | 0.00 | 82 | 1013.5 |
| 20260509011601 | 57 | 0 | 0.0 | 0.0 | 0.00 | 0.00 | 0.00 | 81 | 1013.6 |
| 20260509011055 | 57 | 0 | 0.0 | 0.0 | 0.00 | 0.00 | 0.00 | 81 | 1013.5 |
| 20260509010554 | 57 | 0 | 0.0 | 0.0 | 0.00 | 0.00 | 0.00 | 81 | 1013.6 |
| 20260509010057 | 57 | 0 | 0.0 | 0.0 | 0.00 | 0.00 | 0.00 | 80 | 1013.6 |
| 20260509005554 | 58 | 0 | 0.0 | 0.0 | 0.00 | 0.00 | 0.00 | 80 | 1013.5 |
| 20260509005054 | 58 | 0 | 0.0 | 0.0 | 0.00 | 0.00 | 0.00 | 79 | 1013.4 |
| 20260509004603 | 58 | 0 | 0.0 | 0.0 | 0.00 | 0.00 | 0.00 | 79 | 1013.4 |
| 20260509004054 | 59 | 0 | 0.0 | 0.0 | 0.00 | 0.00 | 0.00 | 78 | 1013.4 |
| 20260509003554 | 59 | 0 | 0.0 | 0.9 | 0.00 | 0.00 | 0.00 | 78 | 1013.6 |
| 20260509003059 | 60 | 0 | 0.0 | 0.9 | 0.00 | 0.00 | 0.00 | 78 | 1013.6 |
| 20260509002554 | 60 | 0 | 0.0 | 0.9 | 0.00 | 0.00 | 0.00 | 78 | 1013.5 |
| 20260509002054 | 60 | 0 | 0.0 | 0.9 | 0.00 | 0.00 | 0.00 | 78 | 1013.4 |
| 20260509001557 | 61 | 0 | 0.0 | 0.9 | 0.00 | 0.00 | 0.00 | 77 | 1013.4 |
| 20260509001054 | 61 | 0 | 0.0 | 0.9 | 0.00 | 0.00 | 0.00 | 77 | 1013.2 |
| 20260509000554 | 61 | 0 | 0.0 | 0.9 | 0.00 | 0.00 | 0.00 | 75 | 1013.2 |
| 20260508235554 | 62 | 0 | 0.0 | 0.9 | 0.00 | 0.00 | 0.00 | 74 | 1013.1 |
| 20260508235055 | 62 | 0 | 0.0 | 0.9 | 0.00 | 0.00 | 0.00 | 74 | 1013.2 |
| 20260508234556 | 62 | 0 | 0.0 | 0.9 | 0.00 | 0.00 | 0.00 | 74 | 1013.3 |
| 20260508234056 | 62 | 0 | 0.0 | 1.7 | 0.00 | 0.00 | 0.00 | 70 | 1013.1 |
| 20260508233555 | 63 | 0 | 0.0 | 1.7 | 0.00 | 0.00 | 0.00 | 70 | 1013.2 |
| 20260508233057 | 63 | 14 | 0.0 | 1.7 | 0.00 | 0.00 | 0.00 | 71 | 1013.2 |
| 20260508232556 | 63 | 14 | 0.0 | 1.7 | 0.00 | 0.00 | 0.00 | 71 | 1013.2 |
| 20260508232053 | 63 | 14 | 0.0 | 1.7 | 0.00 | 0.00 | 0.00 | 72 | 1013.0 |
| 20260508231555 | 63 | 14 | 0.0 | 1.7 | 0.00 | 0.00 | 0.00 | 71 | 1013.2 |
| 20260508231055 | 64 | 14 | 0.0 | 1.7 | 0.00 | 0.00 | 0.00 | 71 | 1013.2 |
| 20260508230554 | 64 | 0 | 0.0 | 1.7 | 0.00 | 0.00 | 0.00 | 68 | 1013.2 |
| 20260508230053 | 64 | 0 | 0.0 | 1.7 | 0.00 | 0.00 | 0.00 | 68 | 1013.4 |
| 20260508225552 | 64 | 0 | 0.0 | 1.7 | 0.00 | 0.00 | 0.00 | 68 | 1013.3 |
| 20260508225055 | 64 | 14 | 0.0 | 1.7 | 0.00 | 0.00 | 0.00 | 67 | 1013.3 |
| 20260508224634 | 65 | 0 | 0.0 | 1.7 | 0.00 | 0.00 | 0.00 | 68 | 1013.2 |
| 20260508224052 | 65 | 30 | 0.0 | 1.7 | 0.00 | 0.00 | 0.00 | 65 | 1013.2 |
| 20260508223552 | 65 | 0 | 0.0 | 1.7 | 0.00 | 0.00 | 0.00 | 65 | 1013.3 |
| 20260508223056 | 65 | 12 | 0.0 | 1.7 | 0.00 | 0.00 | 0.00 | 65 | 1013.1 |
| 20260508222555 | 65 | 26 | 0.0 | 2.6 | 0.00 | 0.00 | 0.00 | 67 | 1013.1 |
| 20260508222053 | 65 | 26 | 0.9 | 2.6 | 0.00 | 0.00 | 0.00 | 65 | 1012.9 |
| 20260508221554 | 65 | 29 | 0.0 | 2.6 | 0.00 | 0.00 | 0.00 | 62 | 1012.9 |
| 20260508221053 | 66 | 0 | 0.9 | 2.6 | 0.00 | 0.00 | 0.00 | 63 | 1012.9 |
| 20260508220553 | 66 | 355 | 0.0 | 1.7 | 0.00 | 0.00 | 0.00 | 66 | 1013.0 |
| 20260508220054 | 66 | 0 | 0.9 | 1.7 | 0.00 | 0.00 | 0.00 | 66 | 1013.0 |
| 20260508215552 | 66 | 0 | 0.0 | 1.7 | 0.00 | 0.00 | 0.00 | 63 | 1013.0 |
| 20260508215053 | 66 | 0 | 0.0 | 3.5 | 0.00 | 0.00 | 0.00 | 62 | 1012.9 |
| 20260508214553 | 66 | 0 | 0.0 | 3.5 | 0.00 | 0.00 | 0.00 | 61 | 1012.7 |
| 20260508214052 | 66 | 0 | 0.0 | 4.3 | 0.00 | 0.00 | 0.00 | 60 | 1012.7 |
| 20260508213552 | 67 | 355 | 0.9 | 4.3 | 0.00 | 0.00 | 0.00 | 59 | 1012.7 |
| 20260508213056 | 67 | 329 | 0.0 | 2.6 | 0.00 | 0.00 | 0.00 | 59 | 1012.8 |
| 20260508212552 | 68 | 0 | 0.0 | 0.9 | 0.00 | 0.00 | 0.00 | 61 | 1012.9 |
| 20260508212053 | 68 | 0 | 0.0 | 1.7 | 0.00 | 0.00 | 0.00 | 59 | 1012.8 |
| 20260508211554 | 68 | 0 | 0.0 | 3.5 | 0.00 | 0.00 | 0.00 | 57 | 1012.8 |
| 20260508211051 | 68 | 23 | 0.9 | 3.5 | 0.00 | 0.00 | 0.00 | 55 | 1012.9 |
| 20260508210551 | 68 | 0 | 0.9 | 3.5 | 0.00 | 0.00 | 0.00 | 57 | 1013.1 |
| 20260508210055 | 68 | 352 | 0.0 | 1.7 | 0.00 | 0.00 | 0.00 | 58 | 1013.1 |
| 20260508205553 | 68 | 0 | 0.0 | 1.7 | 0.00 | 0.00 | 0.00 | 58 | 1013.0 |
| 20260508205051 | 69 | 0 | 0.0 | 1.7 | 0.00 | 0.00 | 0.00 | 54 | 1013.0 |
| 20260508204553 | 69 | 0 | 0.0 | 1.7 | 0.00 | 0.00 | 0.00 | 56 | 1013.1 |
| 20260508204048 | 69 | 352 | 0.0 | 1.7 | 0.00 | 0.00 | 0.00 | 59 | 1012.9 |
| 20260508203551 | 69 | 0 | 0.0 | 2.6 | 0.00 | 0.00 | 0.00 | 56 | 1012.8 |
| 20260508203101 | 69 | 352 | 0.0 | 3.5 | 0.00 | 0.00 | 0.00 | 54 | 1013.0 |
| 20260508202553 | 69 | 0 | 0.9 | 3.5 | 0.00 | 0.00 | 0.00 | 54 | 1012.9 |
| 20260508202050 | 69 | 338 | 0.9 | 3.5 | 0.00 | 0.00 | 0.00 | 54 | 1012.8 |
| 20260508201602 | 68 | 0 | 0.0 | 3.5 | 0.00 | 0.00 | 0.00 | 51 | 1013.1 |
| 20260508201052 | 69 | 82 | 0.9 | 3.5 | 0.00 | 0.00 | 0.00 | 51 | 1013.1 |
| 20260508200550 | 69 | 27 | 0.9 | 3.5 | 0.00 | 0.00 | 0.00 | 49 | 1013.2 |
| 20260508200053 | 69 | 34 | 0.0 | 1.7 | 0.00 | 0.00 | 0.00 | 50 | 1013.3 |
| 20260508195555 | 69 | 332 | 0.0 | 2.6 | 0.00 | 0.00 | 0.00 | 53 | 1013.4 |
| 20260508195051 | 70 | 0 | 0.0 | 2.6 | 0.00 | 0.00 | 0.00 | 54 | 1013.6 |
| 20260508194554 | 70 | 303 | 0.9 | 2.6 | 0.00 | 0.00 | 0.00 | 49 | 1013.5 |
| 20260508194051 | 70 | 329 | 0.0 | 1.7 | 0.00 | 0.00 | 0.00 | 51 | 1013.4 |
| 20260508193554 | 70 | 0 | 0.0 | 1.7 | 0.00 | 0.00 | 0.00 | 49 | 1013.7 |
| 20260508193102 | 70 | 325 | 0.9 | 1.7 | 0.00 | 0.00 | 0.00 | 48 | 1013.6 |
| 20260508192552 | 70 | 319 | 0.0 | 1.7 | 0.00 | 0.00 | 0.00 | 53 | 1013.6 |
| 20260508192052 | 70 | 164 | 0.0 | 1.7 | 0.00 | 0.00 | 0.00 | 46 | 1013.6 |
| 20260508191555 | 70 | 226 | 0.0 | 2.6 | 0.00 | 0.00 | 0.00 | 46 | 1013.8 |
| 20260508191053 | 70 | 0 | 0.0 | 2.6 | 0.00 | 0.00 | 0.00 | 49 | 1014.0 |
| 20260508190551 | 70 | 327 | 0.9 | 2.6 | 0.00 | 0.00 | 0.00 | 50 | 1014.0 |
| 20260508190054 | 70 | 0 | 0.0 | 1.7 | 0.00 | 0.00 | 0.00 | 49 | 1014.0 |
| 20260508185553 | 70 | 5 | 0.0 | 3.5 | 0.00 | 0.00 | 0.00 | 47 | 1014.2 |
| 20260508185050 | 70 | 308 | 0.9 | 3.5 | 0.00 | 0.00 | 0.00 | 46 | 1014.3 |
| 20260508184600 | 70 | 159 | 0.9 | 2.6 | 0.00 | 0.00 | 0.00 | 45 | 1014.3 |
| 20260508184052 | 70 | 171 | 0.9 | 2.6 | 0.00 | 0.00 | 0.00 | 44 | 1014.6 |
| 20260508183551 | 70 | 306 | 0.9 | 2.6 | 0.00 | 0.00 | 0.00 | 44 | 1014.7 |
| 20260508183055 | 69 | 0 | 0.0 | 2.6 | 0.00 | 0.00 | 0.00 | 46 | 1014.5 |
| 20260508182551 | 69 | 350 | 0.9 | 2.6 | 0.00 | 0.00 | 0.00 | 48 | 1014.7 |
| 20260508182051 | 69 | 292 | 0.0 | 2.6 | 0.00 | 0.00 | 0.00 | 48 | 1014.6 |
| 20260508181558 | 69 | 0 | 0.9 | 2.6 | 0.00 | 0.00 | 0.00 | 47 | 1014.6 |
| 20260508181055 | 68 | 281 | 0.9 | 4.3 | 0.00 | 0.00 | 0.00 | 47 | 1014.6 |
| 20260508180548 | 69 | 341 | 0.9 | 4.3 | 0.00 | 0.00 | 0.00 | 44 | 1014.7 |
| 20260508180057 | 69 | 9 | 1.7 | 4.3 | 0.00 | 0.00 | 0.00 | 45 | 1014.7 |
| 20260508175549 | 69 | 349 | 0.0 | 3.5 | 0.00 | 0.00 | 0.00 | 48 | 1014.8 |
| 20260508175049 | 68 | 238 | 0.9 | 3.5 | 0.00 | 0.00 | 0.00 | 48 | 1015.1 |
| 20260508174559 | 68 | 70 | 0.9 | 2.6 | 0.00 | 0.00 | 0.00 | 46 | 1015.0 |
| 20260508174052 | 68 | 0 | 0.9 | 2.6 | 0.00 | 0.00 | 0.00 | 48 | 1015.0 |
| 20260508173554 | 67 | 25 | 0.9 | 4.3 | 0.00 | 0.00 | 0.00 | 47 | 1015.1 |
| 20260508173058 | 67 | 37 | 0.9 | 4.3 | 0.00 | 0.00 | 0.00 | 45 | 1015.1 |
| 20260508172552 | 68 | 316 | 0.9 | 4.3 | 0.00 | 0.00 | 0.00 | 51 | 1015.3 |
| 20260508172053 | 67 | 302 | 0.9 | 6.1 | 0.00 | 0.00 | 0.00 | 51 | 1015.3 |
| 20260508171559 | 67 | 0 | 0.9 | 6.1 | 0.00 | 0.00 | 0.00 | 46 | 1015.2 |
| 20260508171052 | 67 | 22 | 0.9 | 3.5 | 0.00 | 0.00 | 0.00 | 44 | 1015.3 |
| 20260508170552 | 68 | 343 | 0.9 | 5.2 | 0.00 | 0.00 | 0.00 | 48 | 1015.5 |
| 20260508170055 | 67 | 9 | 0.9 | 5.2 | 0.00 | 0.00 | 0.00 | 46 | 1015.5 |
| 20260508165551 | 67 | 0 | 0.9 | 3.5 | 0.00 | 0.00 | 0.00 | 50 | 1015.5 |
| 20260508165051 | 67 | 161 | 0.9 | 5.2 | 0.00 | 0.00 | 0.00 | 54 | 1015.7 |
| 20260508164557 | 67 | 292 | 0.9 | 5.2 | 0.00 | 0.00 | 0.00 | 62 | 1015.8 |
| 20260508164049 | 66 | 96 | 0.9 | 5.2 | 0.00 | 0.00 | 0.00 | 54 | 1015.9 |
| 20260508163553 | 66 | 340 | 0.9 | 3.5 | 0.00 | 0.00 | 0.00 | 61 | 1016.0 |
| 20260508163054 | 66 | 17 | 0.9 | 3.5 | 0.00 | 0.00 | 0.00 | 62 | 1016.0 |
| 20260508162553 | 66 | 0 | 0.9 | 3.5 | 0.00 | 0.00 | 0.00 | 59 | 1016.0 |
| 20260508162054 | 66 | 46 | 0.9 | 3.5 | 0.00 | 0.00 | 0.00 | 65 | 1016.3 |
| 20260508161600 | 66 | 141 | 1.7 | 3.5 | 0.00 | 0.00 | 0.00 | 64 | 1016.2 |
| 20260508161053 | 65 | 26 | 0.0 | 2.6 | 0.00 | 0.00 | 0.00 | 72 | 1016.2 |
| 20260508160555 | 65 | 343 | 0.0 | 2.6 | 0.00 | 0.00 | 0.00 | 71 | 1016.4 |
| 20260508160059 | 64 | 0 | 0.9 | 5.2 | 0.00 | 0.00 | 0.00 | 63 | 1016.6 |
| 20260508155553 | 64 | 0 | 0.9 | 5.2 | 0.00 | 0.00 | 0.00 | 65 | 1016.5 |
| 20260508155056 | 64 | 89 | 1.7 | 5.2 | 0.00 | 0.00 | 0.00 | 70 | 1016.6 |